| time (UTC) | temp F | wind direction | speed MPH | gust MPH | rain 1hr in | rain 24hr in | rain mn in | humidity % | barometer mb |
| 20260508032724 | 47 | 252 | 0.0 | 0.0 | 0.00 | 0.00 | 0.00 | 57 | 1007.6 |
| 20260508031803 | 47 | 311 | 3.0 | 3.0 | 0.00 | 0.00 | 0.00 | 58 | 1007.6 |
| 20260508030903 | 47 | 317 | 2.0 | 3.0 | 0.00 | 0.00 | 0.00 | 59 | 1007.5 |
| 20260508030003 | 47 | 0 | 0.0 | 0.0 | 0.00 | 0.00 | 0.00 | 59 | 1007.6 |
| 20260508025402 | 47 | 0 | 0.0 | 0.0 | 0.00 | 0.00 | 0.00 | 57 | 1007.7 |
| 20260508024503 | 48 | 253 | 0.0 | 0.0 | 0.00 | 0.00 | 0.00 | 56 | 1007.7 |
| 20260508023624 | 47 | 299 | 0.0 | 2.0 | 0.00 | 0.00 | 0.00 | 57 | 1007.8 |
| 20260508022703 | 47 | 298 | 3.0 | 3.0 | 0.00 | 0.00 | 0.00 | 60 | 1007.6 |
| 20260508021803 | 47 | 312 | 0.0 | 1.0 | 0.00 | 0.00 | 0.00 | 58 | 1007.8 |
| 20260508020903 | 48 | 0 | 0.0 | 0.0 | 0.00 | 0.00 | 0.00 | 57 | 1007.8 |
| 20260508020002 | 48 | 313 | 0.0 | 0.0 | 0.00 | 0.00 | 0.00 | 58 | 1007.6 |
| 20260508015403 | 48 | 0 | 0.0 | 0.0 | 0.00 | 0.00 | 0.00 | 57 | 1007.7 |
| 20260508014504 | 48 | 0 | 0.0 | 0.0 | 0.00 | 0.00 | 0.00 | 55 | 1007.6 |
| 20260508013603 | 48 | 311 | 0.0 | 3.0 | 0.00 | 0.00 | 0.00 | 54 | 1007.4 |
| 20260508012703 | 49 | 312 | 2.0 | 3.0 | 0.00 | 0.00 | 0.00 | 53 | 1007.7 |
| 20260508011803 | 49 | 282 | 0.0 | 0.0 | 0.00 | 0.00 | 0.00 | 51 | 1007.4 |
| 20260508010903 | 49 | 320 | 1.0 | 2.0 | 0.00 | 0.00 | 0.00 | 51 | 1007.7 |
| 20260508010003 | 49 | 323 | 0.0 | 0.0 | 0.00 | 0.00 | 0.00 | 50 | 1007.4 |
| 20260508005424 | 50 | 319 | 2.0 | 3.0 | 0.00 | 0.00 | 0.00 | 50 | 1007.1 |
| 20260508004502 | 50 | 295 | 2.0 | 3.0 | 0.00 | 0.00 | 0.00 | 48 | 1007.2 |
| 20260508003624 | 50 | 269 | 2.0 | 2.0 | 0.00 | 0.00 | 0.00 | 47 | 1007.1 |
| 20260508002703 | 50 | 304 | 2.0 | 3.0 | 0.00 | 0.00 | 0.00 | 46 | 1007.1 |
| 20260508001804 | 50 | 307 | 3.0 | 4.0 | 0.00 | 0.00 | 0.00 | 47 | 1007.1 |
| 20260508000904 | 50 | 282 | 0.0 | 4.0 | 0.00 | 0.00 | 0.00 | 45 | 1006.8 |
| 20260508000003 | 50 | 252 | 0.0 | 1.0 | 0.00 | 0.00 | 0.00 | 45 | 1006.9 |
| 20260507235424 | 50 | 286 | 1.0 | 2.0 | 0.00 | 0.00 | 0.00 | 47 | 1006.9 |
| 20260507234503 | 50 | 319 | 0.0 | 1.0 | 0.00 | 0.00 | 0.00 | 50 | 1006.8 |
| 20260507233603 | 50 | 310 | 2.0 | 3.0 | 0.00 | 0.00 | 0.00 | 50 | 1006.9 |
| 20260507232703 | 50 | 14 | 0.0 | 0.0 | 0.00 | 0.00 | 0.00 | 49 | 1006.9 |
| 20260507231802 | 51 | 295 | 0.0 | 1.0 | 0.00 | 0.00 | 0.00 | 45 | 1006.7 |
| 20260507230903 | 51 | 310 | 1.0 | 2.0 | 0.00 | 0.00 | 0.00 | 43 | 1006.8 |
| 20260507230024 | 51 | 297 | 2.0 | 2.0 | 0.00 | 0.00 | 0.00 | 43 | 1006.6 |
| 20260507225403 | 52 | 65 | 1.0 | 2.0 | 0.00 | 0.00 | 0.00 | 45 | 1006.8 |
| 20260507224503 | 52 | 291 | 0.0 | 1.0 | 0.00 | 0.00 | 0.00 | 45 | 1006.6 |
| 20260507223604 | 52 | 328 | 1.0 | 1.0 | 0.00 | 0.00 | 0.00 | 44 | 1007.0 |
| 20260507222703 | 52 | 345 | 1.0 | 2.0 | 0.00 | 0.00 | 0.00 | 44 | 1007.0 |
| 20260507221803 | 52 | 39 | 0.0 | 1.0 | 0.00 | 0.00 | 0.00 | 45 | 1006.7 |
| 20260507220903 | 53 | 353 | 2.0 | 3.0 | 0.00 | 0.00 | 0.00 | 45 | 1006.8 |
| 20260507220003 | 52 | 23 | 1.0 | 1.0 | 0.00 | 0.00 | 0.00 | 47 | 1006.8 |
| 20260507215402 | 52 | 326 | 2.0 | 3.0 | 0.00 | 0.00 | 0.00 | 46 | 1007.1 |
| 20260507214503 | 52 | 302 | 2.0 | 3.0 | 0.00 | 0.00 | 0.00 | 43 | 1006.9 |
| 20260507213603 | 52 | 323 | 3.0 | 4.0 | 0.00 | 0.00 | 0.00 | 43 | 1006.8 |
| 20260507212703 | 52 | 301 | 2.0 | 2.0 | 0.00 | 0.00 | 0.00 | 43 | 1006.7 |
| 20260507211824 | 52 | 302 | 0.0 | 1.0 | 0.00 | 0.00 | 0.00 | 44 | 1007.0 |
| 20260507210925 | 52 | 297 | 1.0 | 2.0 | 0.00 | 0.00 | 0.00 | 44 | 1006.6 |
| 20260507210004 | 52 | 359 | 1.0 | 1.0 | 0.00 | 0.00 | 0.00 | 45 | 1006.9 |
| 20260507205404 | 52 | 12 | 4.0 | 4.0 | 0.00 | 0.00 | 0.00 | 45 | 1006.6 |
| 20260507204524 | 51 | 8 | 2.0 | 3.0 | 0.00 | 0.00 | 0.00 | 47 | 1006.7 |
| 20260507203603 | 51 | 15 | 5.0 | 6.0 | 0.00 | 0.00 | 0.00 | 47 | 1007.0 |
| 20260507202703 | 51 | 8 | 2.0 | 4.0 | 0.00 | 0.00 | 0.00 | 48 | 1006.9 |
| 20260507201803 | 51 | 325 | 2.0 | 3.0 | 0.00 | 0.00 | 0.00 | 47 | 1006.7 |
| 20260507200903 | 51 | 300 | 2.0 | 4.0 | 0.00 | 0.00 | 0.00 | 45 | 1006.8 |
| 20260507200003 | 51 | 324 | 3.0 | 3.0 | 0.00 | 0.00 | 0.00 | 46 | 1006.7 |
| 20260507195424 | 51 | 306 | 2.0 | 2.0 | 0.00 | 0.00 | 0.00 | 46 | 1006.9 |
| 20260507194502 | 51 | 315 | 3.0 | 6.0 | 0.00 | 0.00 | 0.00 | 43 | 1006.8 |
| 20260507193624 | 51 | 297 | 1.0 | 4.0 | 0.00 | 0.00 | 0.00 | 44 | 1007.2 |
| 20260507192703 | 51 | 311 | 6.0 | 11.0 | 0.00 | 0.00 | 0.00 | 42 | 1006.7 |
| 20260507191824 | 51 | 312 | 2.0 | 4.0 | 0.00 | 0.00 | 0.00 | 42 | 1006.6 |
| 20260507190903 | 51 | 305 | 4.0 | 4.0 | 0.00 | 0.00 | 0.00 | 41 | 1006.8 |
| 20260507190004 | 53 | 289 | 9.0 | 14.0 | 0.00 | 0.00 | 0.00 | 39 | 1006.8 |
| 20260507185404 | 51 | 290 | 4.0 | 6.0 | 0.00 | 0.00 | 0.00 | 42 | 1006.7 |
| 20260507184503 | 51 | 315 | 2.0 | 3.0 | 0.00 | 0.00 | 0.00 | 42 | 1006.8 |
| 20260507183603 | 50 | 316 | 4.0 | 6.0 | 0.00 | 0.00 | 0.00 | 44 | 1006.7 |
| 20260507182703 | 50 | 332 | 4.0 | 4.0 | 0.00 | 0.00 | 0.00 | 43 | 1006.9 |
| 20260507181824 | 50 | 356 | 2.0 | 4.0 | 0.00 | 0.00 | 0.00 | 44 | 1006.8 |
| 20260507180902 | 50 | 319 | 3.0 | 3.0 | 0.00 | 0.00 | 0.00 | 44 | 1006.8 |
| 20260507180024 | 50 | 311 | 4.0 | 6.0 | 0.00 | 0.00 | 0.00 | 43 | 1006.9 |
| 20260507175424 | 50 | 300 | 2.0 | 4.0 | 0.00 | 0.00 | 0.00 | 42 | 1006.8 |
| 20260507174503 | 51 | 298 | 3.0 | 8.0 | 0.00 | 0.00 | 0.00 | 42 | 1006.7 |
| 20260507173603 | 50 | 331 | 1.0 | 3.0 | 0.00 | 0.00 | 0.00 | 43 | 1006.6 |
| 20260507172703 | 51 | 302 | 3.0 | 9.0 | 0.00 | 0.00 | 0.00 | 41 | 1006.5 |
| 20260507171803 | 52 | 288 | 4.0 | 16.0 | 0.00 | 0.00 | 0.00 | 40 | 1006.6 |
| 20260507170903 | 51 | 309 | 4.0 | 9.0 | 0.00 | 0.00 | 0.00 | 41 | 1006.6 |
| 20260507170003 | 52 | 298 | 7.0 | 11.0 | 0.00 | 0.00 | 0.00 | 40 | 1006.8 |
| 20260507165403 | 53 | 286 | 6.0 | 11.0 | 0.00 | 0.00 | 0.00 | 39 | 1006.8 |
| 20260507164503 | 52 | 298 | 10.0 | 18.0 | 0.00 | 0.00 | 0.00 | 41 | 1006.8 |
| 20260507163603 | 52 | 285 | 11.0 | 13.0 | 0.00 | 0.00 | 0.00 | 40 | 1006.9 |
| 20260507162723 | 51 | 312 | 6.0 | 9.0 | 0.00 | 0.00 | 0.00 | 41 | 1007.2 |
| 20260507161803 | 50 | 304 | 2.0 | 8.0 | 0.00 | 0.00 | 0.00 | 42 | 1007.1 |
| 20260507160924 | 50 | 295 | 6.0 | 13.0 | 0.00 | 0.00 | 0.00 | 44 | 1007.4 |
| 20260507160003 | 50 | 278 | 6.0 | 10.0 | 0.00 | 0.00 | 0.00 | 47 | 1007.3 |
| 20260507155403 | 51 | 289 | 5.0 | 6.0 | 0.00 | 0.01 | 0.00 | 47 | 1007.3 |
| 20260507154524 | 50 | 292 | 4.0 | 8.0 | 0.00 | 0.01 | 0.00 | 46 | 1007.3 |
| 20260507153604 | 51 | 275 | 5.0 | 9.0 | 0.00 | 0.01 | 0.00 | 46 | 1007.4 |
| 20260507152703 | 51 | 278 | 8.0 | 14.0 | 0.00 | 0.01 | 0.00 | 44 | 1007.4 |
| 20260507151802 | 50 | 303 | 2.0 | 3.0 | 0.00 | 0.01 | 0.00 | 46 | 1007.0 |
| 20260507150903 | 49 | 301 | 4.0 | 16.0 | 0.00 | 0.02 | 0.00 | 52 | 1007.2 |
| 20260507150003 | 50 | 298 | 3.0 | 9.0 | 0.00 | 0.03 | 0.00 | 52 | 1007.1 |
| 20260507145403 | 50 | 303 | 4.0 | 9.0 | 0.00 | 0.04 | 0.00 | 50 | 1007.1 |
| 20260507144503 | 50 | 278 | 5.0 | 7.0 | 0.00 | 0.07 | 0.00 | 52 | 1007.0 |
| 20260507143603 | 51 | 268 | 4.0 | 8.0 | 0.00 | 0.09 | 0.00 | 53 | 1006.7 |
| 20260507142702 | 48 | 294 | 6.0 | 8.0 | 0.00 | 0.10 | 0.00 | 54 | 1007.0 |
| 20260507141824 | 49 | 292 | 8.0 | 11.0 | 0.00 | 0.11 | 0.00 | 53 | 1007.1 |
| 20260507140903 | 48 | 288 | 4.0 | 7.0 | 0.00 | 0.12 | 0.00 | 54 | 1007.1 |
| 20260507140003 | 48 | 315 | 1.0 | 3.0 | 0.00 | 0.13 | 0.00 | 58 | 1007.3 |
| 20260507135424 | 48 | 286 | 6.0 | 9.0 | 0.00 | 0.14 | 0.00 | 57 | 1007.3 |
| 20260507134524 | 47 | 282 | 12.0 | 18.0 | 0.00 | 0.15 | 0.00 | 56 | 1007.1 |
| 20260507133602 | 47 | 290 | 6.0 | 8.0 | 0.00 | 0.16 | 0.00 | 56 | 1007.2 |
| 20260507132703 | 46 | 285 | 4.0 | 9.0 | 0.00 | 0.17 | 0.00 | 58 | 1007.1 |
| 20260507131824 | 46 | 274 | 4.0 | 15.0 | 0.00 | 0.18 | 0.00 | 58 | 1007.1 |
| 20260507130903 | 47 | 280 | 6.0 | 16.0 | 0.00 | 0.18 | 0.00 | 57 | 1007.2 |
| 20260507130003 | 47 | 275 | 2.0 | 4.0 | 0.00 | 0.19 | 0.00 | 58 | 1007.3 |
| 20260507125404 | 46 | 290 | 9.0 | 11.0 | 0.00 | 0.19 | 0.00 | 59 | 1007.3 |
| 20260507124503 | 45 | 299 | 7.0 | 9.0 | 0.00 | 0.19 | 0.00 | 60 | 1007.2 |
| 20260507123604 | 46 | 286 | 4.0 | 4.0 | 0.00 | 0.19 | 0.00 | 60 | 1007.3 |
| 20260507122703 | 45 | 292 | 11.0 | 15.0 | 0.00 | 0.20 | 0.00 | 60 | 1007.4 |
| 20260507121824 | 44 | 273 | 6.0 | 15.0 | 0.00 | 0.21 | 0.00 | 62 | 1007.2 |
| 20260507120903 | 44 | 286 | 5.0 | 15.0 | 0.00 | 0.22 | 0.00 | 61 | 1007.4 |
| 20260507120003 | 44 | 276 | 6.0 | 10.0 | 0.00 | 0.22 | 0.00 | 63 | 1007.3 |
| 20260507115403 | 44 | 286 | 8.0 | 15.0 | 0.00 | 0.23 | 0.00 | 63 | 1007.1 |
| 20260507114503 | 44 | 281 | 6.0 | 8.0 | 0.00 | 0.24 | 0.00 | 63 | 1007.1 |
| 20260507113603 | 44 | 264 | 2.0 | 4.0 | 0.00 | 0.25 | 0.00 | 64 | 1007.1 |
| 20260507112703 | 44 | 264 | 5.0 | 8.0 | 0.00 | 0.26 | 0.00 | 64 | 1007.2 |
| 20260507111802 | 44 | 267 | 7.0 | 11.0 | 0.00 | 0.27 | 0.00 | 65 | 1007.0 |
| 20260507110903 | 43 | 265 | 5.0 | 13.0 | 0.00 | 0.28 | 0.00 | 66 | 1007.2 |
| 20260507110004 | 42 | 267 | 6.0 | 13.0 | 0.00 | 0.29 | 0.00 | 68 | 1007.1 |
| 20260507105425 | 42 | 270 | 8.0 | 13.0 | 0.00 | 0.30 | 0.00 | 68 | 1006.9 |
| 20260507104503 | 42 | 251 | 5.0 | 7.0 | 0.00 | 0.30 | 0.00 | 70 | 1006.9 |
| 20260507103603 | 43 | 283 | 3.0 | 4.0 | 0.00 | 0.31 | 0.00 | 70 | 1006.8 |
| 20260507102703 | 43 | 286 | 3.0 | 8.0 | 0.00 | 0.32 | 0.00 | 70 | 1006.7 |
| 20260507101803 | 43 | 274 | 5.0 | 7.0 | 0.00 | 0.33 | 0.00 | 75 | 1006.6 |
| 20260507100904 | 44 | 260 | 7.0 | 11.0 | 0.00 | 0.33 | 0.00 | 75 | 1006.5 |
| 20260507100003 | 44 | 268 | 2.0 | 7.0 | 0.00 | 0.34 | 0.00 | 74 | 1006.1 |
| 20260507095403 | 44 | 278 | 3.0 | 6.0 | 0.00 | 0.34 | 0.00 | 80 | 1006.4 |
| 20260507094503 | 44 | 269 | 4.0 | 8.0 | 0.00 | 0.34 | 0.00 | 84 | 1006.4 |
| 20260507093603 | 45 | 268 | 7.0 | 10.0 | 0.00 | 0.35 | 0.00 | 87 | 1006.4 |
| 20260507092703 | 44 | 269 | 7.0 | 8.0 | 0.00 | 0.35 | 0.00 | 88 | 1006.4 |
| 20260507091804 | 45 | 280 | 3.0 | 7.0 | 0.00 | 0.35 | 0.00 | 88 | 1006.4 |
| 20260507090903 | 45 | 263 | 6.0 | 10.0 | 0.00 | 0.35 | 0.00 | 87 | 1006.7 |
| 20260507090003 | 45 | 260 | 2.0 | 9.0 | 0.00 | 0.35 | 0.00 | 88 | 1006.6 |
| 20260507085402 | 44 | 266 | 3.0 | 6.0 | 0.00 | 0.35 | 0.00 | 88 | 1006.5 |
| 20260507084504 | 45 | 271 | 7.0 | 11.0 | 0.00 | 0.35 | 0.00 | 87 | 1006.3 |
| 20260507083603 | 45 | 265 | 7.0 | 9.0 | 0.00 | 0.35 | 0.00 | 87 | 1006.2 |
| 20260507082703 | 44 | 262 | 6.0 | 9.0 | 0.00 | 0.35 | 0.00 | 88 | 1006.0 |
| 20260507081803 | 45 | 275 | 3.0 | 9.0 | 0.00 | 0.35 | 0.00 | 88 | 1006.2 |
| 20260507080903 | 45 | 264 | 6.0 | 13.0 | 0.00 | 0.35 | 0.00 | 88 | 1006.2 |
| 20260507080003 | 44 | 266 | 7.0 | 9.0 | 0.00 | 0.35 | 0.00 | 89 | 1006.5 |
| 20260507075403 | 45 | 296 | 3.0 | 4.0 | 0.00 | 0.35 | 0.00 | 89 | 1006.4 |
| 20260507074503 | 45 | 263 | 6.0 | 7.0 | 0.00 | 0.35 | 0.00 | 88 | 1006.6 |
| 20260507073603 | 45 | 262 | 6.0 | 8.0 | 0.00 | 0.35 | 0.00 | 88 | 1006.6 |
| 20260507072703 | 44 | 263 | 5.0 | 8.0 | 0.00 | 0.35 | 0.00 | 89 | 1006.5 |
| 20260507071824 | 45 | 265 | 3.0 | 6.0 | 0.00 | 0.35 | 0.00 | 88 | 1006.7 |
| 20260507070903 | 45 | 266 | 3.0 | 9.0 | 0.00 | 0.35 | 0.00 | 88 | 1006.4 |
| 20260507070004 | 45 | 281 | 4.0 | 7.0 | 0.00 | 0.35 | 0.00 | 89 | 1006.5 |
| 20260507065424 | 45 | 298 | 4.0 | 7.0 | 0.00 | 0.35 | 0.00 | 88 | 1006.4 |
| 20260507064503 | 45 | 277 | 3.0 | 7.0 | 0.00 | 0.35 | 0.00 | 87 | 1006.7 |
| 20260507063604 | 45 | 275 | 6.0 | 8.0 | 0.00 | 0.35 | 0.00 | 87 | 1006.8 |
| 20260507062703 | 44 | 282 | 5.0 | 7.0 | 0.00 | 0.35 | 0.00 | 88 | 1006.9 |
| 20260507061803 | 45 | 269 | 6.0 | 7.0 | 0.00 | 0.35 | 0.00 | 86 | 1006.8 |
| 20260507060903 | 45 | 265 | 4.0 | 6.0 | 0.00 | 0.35 | 0.00 | 86 | 1006.9 |
| 20260507060003 | 44 | 282 | 4.0 | 6.0 | 0.00 | 0.35 | 0.00 | 87 | 1006.7 |
| 20260507055403 | 44 | 278 | 5.0 | 6.0 | 0.00 | 0.35 | 0.00 | 86 | 1006.8 |
| 20260507054503 | 44 | 256 | 4.0 | 7.0 | 0.00 | 0.35 | 0.00 | 85 | 1007.0 |
| 20260507053603 | 44 | 274 | 3.0 | 4.0 | 0.00 | 0.35 | 0.00 | 86 | 1007.0 |
| 20260507052703 | 44 | 282 | 3.0 | 4.0 | 0.00 | 0.35 | 0.00 | 86 | 1007.1 |
| 20260507051803 | 44 | 248 | 2.0 | 6.0 | 0.00 | 0.35 | 0.00 | 85 | 1007.2 |
| 20260507050903 | 44 | 302 | 2.0 | 4.0 | 0.00 | 0.35 | 0.00 | 87 | 1007.1 |
| 20260507050003 | 44 | 295 | 4.0 | 6.0 | 0.00 | 0.35 | 0.00 | 87 | 1007.1 |
| 20260507045403 | 45 | 267 | 0.0 | 1.0 | 0.00 | 0.35 | 0.00 | 87 | 1007.4 |
| 20260507044503 | 44 | 273 | 2.0 | 3.0 | 0.00 | 0.35 | 0.00 | 88 | 1007.5 |
| 20260507043603 | 44 | 288 | 3.0 | 4.0 | 0.00 | 0.35 | 0.00 | 88 | 1007.7 |
| 20260507042703 | 45 | 276 | 2.0 | 4.0 | 0.00 | 0.35 | 0.00 | 87 | 1007.8 |
| 20260507041804 | 45 | 264 | 4.0 | 4.0 | 0.00 | 0.35 | 0.00 | 88 | 1007.9 |
| 20260507040904 | 44 | 275 | 3.0 | 4.0 | 0.00 | 0.35 | 0.00 | 88 | 1007.9 |
| 20260507040025 | 45 | 254 | 1.0 | 2.0 | 0.00 | 0.35 | 0.00 | 87 | 1007.8 |
| 20260507035403 | 44 | 259 | 1.0 | 2.0 | 0.00 | 0.35 | 0.35 | 87 | 1007.7 |
| 20260507034503 | 45 | 263 | 3.0 | 3.0 | 0.00 | 0.35 | 0.35 | 87 | 1007.8 |
| 20260507033603 | 44 | 261 | 5.0 | 6.0 | 0.00 | 0.35 | 0.35 | 87 | 1007.9 |